Friday, January 19, 2018, 8:14 PM EST
Back to Local

KELZ, Wellsville Municipal Airport

Location: Wellsville, NY, United States Lat: 42.1
Local Time: 8:14 PM EST ( 1:14 GMT) Lon: -78
Time Zone: US/Eastern Elev: 2122 ft

Show me the last for .
Show Coded

Time T Td Feel RH Dir Speed Gust Alt SLP Vis Weather Sky Remarks
2018-01-19 18:56 34 19 22 53 230° 17 23 29.85 29.92 10 CLR 6-hr Min Temp (7pm): 33.1°F
6-hr Max Temp (7pm): 37.9°F
2018-01-19 17:56 34 19 22 53 230° 13 21 29.85 29.92 10 CLR None
2018-01-19 16:56 35 19 24 51 230° 9 18 29.87 29.95 10 CLR None
2018-01-19 15:56 38 19 28 46 230° 10 20 29.87 29.94 10 CLR None
2018-01-19 14:56 37 19 27 47 230° 10 20 29.86 29.93 10 CLR None
2018-01-19 13:56 36 18 25 47 250° 12 21 29.85 29.93 10 CLR None
2018-01-19 12:56 33 17 24 51 230° 12 - 29.87 29.94 10 CLR 6-hr Min Temp (1pm): 18.0°F
6-hr Max Temp (1pm): 33.1°F
2018-01-19 11:56 29 15 16 55 230° 14 20 29.89 29.98 10 CLR None
2018-01-19 10:56 25 13 11 59 250° 12 18 29.92 30.01 10 CLR None
2018-01-19 09:56 22 12 7 65 250° 15 21 29.92 30.01 10 CLR None
2018-01-19 08:56 20 11 4 67 240° 14 22 29.93 30.02 10 CLR None
2018-01-19 07:56 19 10 3 67 250° 10 21 29.92 30.02 10 CLR None
2018-01-19 06:56 19 10 3 67 250° 14 20 29.92 30.02 10 CLR 6-hr Min Temp (7am): 19.0°F
6-hr Max Temp (7am): 21.0°F
2018-01-19 05:56 19 11 3 70 240° 14 21 29.92 30.02 10 CLR None
2018-01-19 04:56 19 11 7 70 250° 12 - 29.92 30.02 10 CLR None
2018-01-19 03:56 20 11 5 67 240° 10 17 29.91 30.01 10 CLR None
2018-01-19 02:56 20 11 4 67 240° 12 20 29.91 30.01 10 CLR None
2018-01-19 01:56 20 11 4 67 240° 15 22 29.91 30.01 10 CLR None
2018-01-19 00:56 21 11 6 64 250° 10 20 29.91 30.01 10 CLR 6-hr Min Temp (1am): 19.9°F
6-hr Max Temp (1am): 21.0°F
2018-01-18 23:56 21 11 5 64 240° 15 22 29.90 30.01 10 CLR 24-hr Min Temp (12am): 8.1°F
24-hr Max Temp (12am): 21.0°F
2018-01-18 22:56 21 11 4 64 250° 14 26 29.91 30.02 10 CLR Peak wind: 31 mph (27 kts) from 230° at 42 min
2018-01-18 21:56 21 11 4 64 230° 13 24 29.92 30.03 10 CLR None
2018-01-18 20:56 20 11 4 67 250° 12 20 29.93 30.05 10 CLR None

Support USWX by starting your Amazon purchase here.